Location: Chanteloup
(48.8560°N, 2.7390°E)
Time: 17:45:23
(UTC+00:00)

SL-16 R/B - Pass Details

Date: 24 October 2021
Orbit: 842 x 846 km, 71.0° (Epoch: 07 December)

Event Time Altitude Azimuth Distance (km) Brightness Sun altitude
Rises 19:36:30 0° 245° (WSW) 3,396 6.0 -29.1°
Reaches altitude 10° 19:39:19 10° 257° (WSW) 2,465 5.3 -29.6°
Maximum altitude 19:44:06 28° 315° (NW) 1,558 4.0 -30.3°
Drops below altitude 10° 19:48:55 10° 13° (NNE) 2,478 4.7 -31.1°
Enters shadow 19:49:30 - 16° (NNE) 2,659 4.8 -31.2°
